User: anonymous
Location: Unspecified
(0.0000°N, 0.0000°E)
Time: 21:29:28
(UTC+00:00)
Language:

GOSAT - Orbit

View from above orbital plane
View from above orbital plane
View from above satellite
View from above satellite

Ground track
Ground track

The orbit data is extracted from the following two-line orbital elements,

1 33492U 09002A   14259.56571086 -.00000161  00000-0 -19894-4 0  9154
2 33492 098.0568 007.6286 0001519 095.2225 264.9147 14.67551190302488
Epoch (UTC): 16 September 2014 13:34:37
Eccentricity: 0.0001519
inclination: 98.0568°
perigee height: 668 km
apogee height: 670 km
right ascension of ascending node: 7.6286°
argument of perigee: 95.2225°
revolutions per day: 14.67551190
mean anomaly at epoch: 264.9147°
orbit number at epoch: 30248

The dashed part of the orbit path shows where the satellite is in the earth's shadow,  

DLR